BREEZE-M DEB

基本信息
目录编号:
38610
目录名称:
BREEZE-M DEB
国际标识:
2008-011BH
轨道中心:
EARTH
物体状态:
在轨
发射日期:
2008-03-14 UTC
轨道信息
数据来源: 国际轨道数据
星历时间: 2026-07-13T05:03:32+0800
半长轴: 20041.921km
偏心率: 0.6362768
轨道倾角: 49.243°
近地点辐角: 189.239°
升交点赤经: 46.297°
平近点角: 148.501°
近地点: 911.574km
远地点: 26415.994km
周期: 470.618分钟
每日圈数: 3.059805
详细信息
发射场:
TTMTR
轨道高度:
LEO
数据来源:
AOE Integration Group
参考系:
TEME
时间系统:
UTC
历元类型:
SGP4
2D轨道图
3D轨道图
轨道高度分析图
轨道倾角分析图
轨道综合分析图
查看轨道综合分析图